Simultaneous Nadir Overpasses (SNOs) Predictions

Prediction of SNOs between GOES-14 and NOAA-20 Satellite Orbit:

Table of predicted SNOs for the next 14.0 days since TLE Epoch: 10/2/2020
Index Date Time (GOES-14) GOES-14 Lat,Lon NOAA-20 Lat,Lon Distance(km) Time Diff (sec)
1 10/02/2020 20:16:29 -0.28,-104.40 0.12,-102.66 198.40 80
2 10/04/2020 08:38:18 0.26,-104.40 1.03,-107.94 403.19 80
3 10/05/2020 08:16:54 0.27,-104.38 0.05,-103.41 111.65 80
4 10/06/2020 20:38:51 -0.24,-104.36 -1.24,-108.71 496.72 80
5 10/07/2020 20:22:47 -0.26,-104.36 -0.20,-104.19 20.03 80
6 10/10/2020 08:25:52 0.24,-104.38 0.37,-104.94 63.95 80
7 10/11/2020 08:04:28 0.25,-104.36 -0.62,-100.40 450.50 80
8 10/12/2020 20:26:26 -0.22,-104.32 -0.51,-105.73 159.92 80
9 10/13/2020 20:10:22 -0.23,-104.32 0.47,-101.19 356.69 80
10 10/15/2020 08:32:11 0.20,-104.37 0.68,-106.47 240.23 80
11 10/16/2020 08:10:46 0.22,-104.35 -0.31,-101.94 274.47 80
